Wind_Speed
73 74 77 79 85 85 89 93 97 101 107 109 112 115 114 112 109 112 111 111 106 105 103 103 102 102 101 99 99 99 98 97 95 93 95 97 99 100 101 103 103 103 101
72 71 73 78 83 85 84 89 93 99 104 105 112 114 115 115 116 114 111 110 111 110 109 106 103 104 103 101 100 101 101 101 100 98 100 100 100 102 102 103 104 101 102
73 74 75 76 78 80 83 83 88 95 102 109 108 110 113 113 114 115 117 115 113 111 109 110 109 108 108 108 108 104 105 106 105 104 103 103 104 102 105 101 103 100 105
71 72 71 74 77 79 80 82 87 92 98 108 114 114 113 117 118 115 114 114 118 118 113 110 111 109 108 111 112 112 113 112 110 111 110 109 107 107 103 103 108 104 105
71 74 75 73 76 78 81 83 84 87 93 101 111 117 119 119 120 120 120 120 121 117 117 115 116 117 118 119 119 118 118 117 115 111 112 112 108 106 106 108 109 112 110
75 77 77 76 79 80 81 84 87 89 89 95 104 111 121 123 126 125 125 127 128 128 125 124 122 120 118 119 122 121 120 120 120 116 116 114 113 113 111 112 113 114 112
85 83 83 80 80 83 87 86 89 89 92 93 96 103 112 121 129 132 134 132 128 126 127 129 128 127 127 125 123 122 121 120 120 119 117 114 116 117 117 112 115 114 115
86 85 86 88 89 87 84 92 94 92 91 93 96 100 102 109 118 127 133 137 138 139 138 135 133 132 132 131 131 131 130 128 125 123 122 121 118 121 118 119 118 119 119
86 86 87 88 88 88 86 85 94 97 98 98 100 100 105 108 111 115 121 127 131 133 134 135 135 134 133 134 133 131 129 128 127 128 127 125 122 120 123 123 119 123 123
93 93 88 87 87 88 88 86 87 97 100 104 103 107 108 109 111 113 116 120 123 128 129 131 132 132 133 132 133 134 133 132 130 130 128 127 124 125 126 123 122 121 117
94 93 92 93 93 93 92 92 93 92 96 106 109 115 114 117 114 111 112 116 118 122 126 127 128 129 131 131 130 130 131 130 128 126 127 124 122 121 120 116 113 113 111
93 94 97 98 100 100 96 92 90 91 94 96 107 108 111 115 120 118 115 114 114 114 117 119 121 124 124 125 126 126 125 125 124 123 120 118 116 112 112 112 111 109 109
97 99 101 103 103 101 92 86 86 88 88 91 93 103 108 120 120 122 119 118 120 116 114 112 113 113 113 115 118 120 120 121 120 118 116 112 110 110 108 109 109 108 108
97 99 100 101 99 96 90 82 81 83 87 88 89 89 100 101 113 120 119 116 116 116 116 114 111 110 110 110 110 110 111 110 109 109 109 108 106 108 110 108 110 109 108
97 99 100 99 97 95 95 88 84 85 91 90 89 88 89 92 98 109 119 119 116 119 118 117 115 113 113 111 110 110 109 107 106 106 108 108 107 107 108 109 108 108 107
100 102 103 102 99 95 92 93 85 85 91 92 89 87 89 89 90 93 102 108 116 122 119 118 116 111 111 111 110 111 113 113 112 111 109 110 108 108 109 107 106 106 106
107 109 109 107 102 96 92 87 91 90 92 94 92 88 88 89 88 90 91 96 102 111 118 113 115 115 112 111 112 113 114 114 114 114 112 111 109 106 107 106 104 106 107
109 109 108 106 104 100 94 91 90 90 90 91 93 91 90 87 86 87 87 88 92 99 105 110 111 112 113 112 112 113 114 115 115 113 112 113 111 111 109 108 108 107 106
98 97 95 93 92 88 86 84 84 84 83 84 89 92 93 92 87 85 86 85 85 90 94 100 102 106 107 110 111 112 112 111 110 112 111 110 111 110 109 109 108 110 111
86 86 83 82 79 77 76 72 72 73 75 77 79 83 90 94 92 88 85 83 81 81 84 89 94 99 102 103 105 108 108 106 105 106 108 109 108 111 108 109 110 109 106
81 79 76 74 71 71 68 65 65 65 67 69 72 75 80 89 93 92 89 86 83 81 80 82 84 90 95 99 102 104 105 106 105 105 105 106 108 109 108 109 109 108 107
78 76 73 70 70 70 68 66 65 63 62 62 64 68 74 78 87 94 93 91 88 86 84 82 82 83 85 90 95 99 102 105 106 106 106 107 108 110 109 110 110 110 109
72 71 71 70 69 67 63 60 58 58 58 57 59 63 68 73 78 84 93 95 94 92 90 88 85 83 83 85 88 91 95 99 101 104 107 108 109 109 109 109 108 109 110
68 68 67 67 67 67 66 61 57 55 55 56 56 58 62 67 71 76 81 88 94 97 97 94 92 90 89 88 88 89 91 94 96 100 102 104 106 108 109 109 108 108 107
66 66 64 63 63 63 65 64 58 55 55 55 55 56 58 61 66 72 75 80 85 91 98 100 99 97 96 95 94 93 92 93 94 95 97 101 102 103 104 105 106 106 106
66 63 62 61 60 60 61 63 63 59 56 56 56 57 58 60 62 65 69 74 78 82 87 93 100 103 103 102 102 101 100 99 98 96 97 97 98 99 100 101 101 101 100
Wind_Direction
261 260 258 257 255 252 248 246 244 243 245 245 245 244 244 245 249 252 253 254 255 256 258 260 261 262 264 267 268 270 272 273 274 274 276 278 282 285 289 291 294 296 299
263 260 258 256 254 253 251 248 246 243 244 248 248 247 246 248 248 248 250 253 257 258 258 257 259 261 263 265 266 268 270 272 274 274 277 279 282 284 287 289 292 295 296
265 264 262 260 259 258 257 253 250 246 245 242 245 249 248 249 248 251 251 252 253 255 257 260 261 262 263 264 265 266 268 271 274 276 278 280 282 285 286 290 290 293 293
265 263 261 261 262 261 258 257 254 249 246 245 244 244 248 251 251 251 252 254 256 255 256 258 259 261 263 264 266 268 270 272 275 277 278 279 282 283 285 286 289 289 292
259 259 260 260 260 261 259 258 255 254 251 248 247 247 247 247 249 252 253 254 254 255 257 259 261 262 263 264 266 267 269 271 274 278 278 280 281 283 283 285 287 289 291
259 260 258 258 258 260 260 259 256 254 253 251 248 248 248 249 250 251 253 256 257 258 259 260 260 261 263 265 267 268 269 270 273 276 276 278 280 282 283 283 285 288 291
265 265 264 261 258 257 256 258 259 258 257 254 252 251 249 250 250 250 251 253 255 257 258 260 262 263 264 265 266 268 270 271 272 273 276 277 277 280 281 284 285 286 289
269 268 266 266 266 266 260 256 258 261 259 260 257 256 254 251 251 253 254 254 254 256 256 257 259 261 262 264 265 266 267 268 270 272 274 276 276 278 280 282 284 285 287
272 271 270 269 269 268 266 260 255 256 257 258 258 256 255 254 252 252 253 256 257 258 257 257 258 259 260 262 264 267 268 269 271 272 273 275 276 277 278 282 283 283 286
274 274 272 271 271 269 264 260 258 257 257 256 259 259 257 254 254 254 254 253 254 257 259 260 261 261 261 263 264 265 267 269 270 271 273 275 276 277 278 280 281 281 284
273 274 273 272 271 270 268 266 262 261 258 256 255 254 254 256 255 254 256 256 254 254 256 258 258 260 261 262 264 265 266 267 268 269 271 274 275 275 277 277 278 278 280
276 277 276 276 275 273 271 269 267 266 262 260 256 252 252 255 256 255 256 255 256 255 255 257 258 259 260 261 261 263 264 266 267 267 268 269 271 273 274 275 277 278 279
276 276 276 276 276 275 275 274 272 271 269 263 259 252 252 253 256 257 257 257 256 256 256 257 258 260 261 262 263 264 264 265 266 267 268 269 271 272 274 274 276 277 279
274 275 276 276 277 279 279 276 272 269 268 267 264 261 253 252 256 258 258 256 257 260 258 258 259 258 259 261 262 263 264 265 266 266 266 269 270 270 272 275 276 277 278
276 277 277 279 278 278 277 274 271 269 267 266 266 264 261 257 255 255 255 256 254 258 260 260 260 260 259 259 261 262 264 265 265 266 267 268 269 271 272 273 276 277 278
284 284 284 282 280 278 276 276 273 267 268 269 267 266 265 262 260 257 254 253 254 256 256 257 258 258 258 259 259 260 261 262 264 265 266 267 268 270 271 273 274 276 277
286 285 285 285 284 283 279 276 273 267 264 266 267 266 264 264 263 261 258 255 255 255 251 253 257 257 256 257 257 258 258 260 261 263 264 265 267 269 270 272 273 274 276
283 283 282 283 284 283 282 279 274 271 268 265 266 266 265 263 262 262 261 258 256 255 252 253 252 253 254 254 254 255 257 258 260 261 263 264 265 266 268 269 272 273 274
287 286 285 284 283 283 280 278 277 275 272 266 260 258 260 262 261 261 261 260 259 257 256 254 254 254 254 255 256 257 257 259 260 261 262 263 264 264 267 269 269 270 271
289 289 289 288 286 283 282 282 279 275 272 268 264 260 254 255 258 258 258 259 259 259 259 257 256 256 255 255 256 257 258 258 259 260 260 261 263 264 264 266 268 271 273
293 292 290 288 284 283 284 284 282 279 274 271 266 263 258 252 253 255 256 257 258 258 258 257 257 256 256 256 256 257 258 258 258 258 259 260 261 263 264 264 265 267 269
292 292 291 289 286 285 284 284 283 279 275 271 268 265 261 257 253 252 254 255 255 256 257 257 257 258 258 257 257 256 257 258 259 260 260 260 261 263 263 264 266 267 268
295 293 291 289 288 287 287 285 282 279 275 271 269 267 263 261 257 254 252 252 254 255 255 257 257 258 258 258 258 258 257 258 259 259 260 261 262 263 264 265 266 266 268
296 294 292 289 287 286 286 286 283 279 276 272 270 269 267 264 261 259 256 254 252 253 255 255 256 256 257 258 259 259 259 259 259 259 260 261 262 263 264 265 266 267 267
297 296 294 291 288 286 286 285 284 281 277 275 273 271 269 267 264 261 260 258 256 254 253 253 255 255 256 257 258 258 259 260 260 260 260 261 262 263 264 265 266 267 267
296 296 295 293 291 288 286 285 285 284 281 276 274 272 270 269 267 265 263 261 260 258 257 255 254 255 255 256 257 257 258 259 260 260 261 261 262 262 263 264 265 266 267
Height
10484 10485 10486 10488 10490 10495 10500 10504 10508 10513 10517 10522 10526 10529 10534 10539 10543 10546 10549 10550 10553 10554 10554 10555 10557 10556 10556 10555 10554 10555 10556 10556 10562 10564 10559 10553 10546 10541 10534 10527 10525 10521 10515
10463 10464 10465 10465 10466 10469 10474 10480 10482 10487 10493 10497 10500 10503 10506 10511 10514 10516 10521 10524 10527 10530 10533 10533 10537 10534 10536 10537 10536 10536 10534 10533 10536 10541 10537 10535 10532 10525 10521 10516 10509 10506 10498
10443 10444 10445 10447 10447 10449 10451 10455 10459 10463 10468 10472 10479 10479 10482 10484 10486 10490 10493 10496 10500 10503 10506 10508 10512 10512 10515 10513 10513 10515 10513 10511 10511 10514 10517 10514 10511 10508 10502 10497 10491 10489 10484
10421 10423 10425 10425 10426 10428 10429 10430 10432 10435 10439 10444 10448 10454 10459 10461 10463 10465 10467 10469 10472 10477 10479 10482 10485 10486 10488 10487 10487 10490 10487 10488 10489 10488 10491 10491 10491 10488 10485 10479 10467 10472 10467
10400 10401 10402 10403 10403 10404 10405 10406 10408 10410 10414 10417 10421 10423 10429 10433 10437 10438 10440 10444 10447 10450 10454 10458 10461 10462 10463 10464 10463 10466 10465 10465 10468 10463 10469 10459 10468 10465 10463 10458 10455 10447 10445
10376 10375 10378 10380 10381 10382 10383 10382 10382 10383 10386 10388 10392 10397 10397 10400 10404 10409 10414 10418 10421 10425 10429 10432 10435 10436 10437 10438 10438 10439 10440 10439 10443 10441 10442 10443 10438 10438 10439 10436 10434 10427 10423
10352 10353 10353 10355 10356 10356 10356 10357 10358 10359 10361 10361 10364 10367 10372 10373 10372 10375 10378 10384 10388 10393 10399 10403 10406 10406 10407 10409 10410 10411 10412 10412 10413 10415 10416 10418 10412 10413 10412 10410 10406 10403 10401
10328 10328 10328 10328 10329 10330 10331 10332 10332 10334 10334 10337 10337 10337 10341 10342 10343 10346 10348 10351 10357 10361 10364 10367 10372 10374 10375 10377 10380 10381 10381 10381 10385 10386 10389 10388 10388 10385 10386 10383 10380 10379 10374
10302 10301 10301 10302 10303 10302 10304 10304 10304 10305 10305 10305 10307 10308 10308 10308 10307 10310 10314 10318 10322 10327 10331 10333 10336 10339 10339 10344 10348 10351 10354 10353 10352 10355 10357 10357 10357 10359 10357 10357 10353 10351 10349
10275 10274 10273 10274 10275 10274 10272 10273 10274 10275 10278 10278 10277 10276 10278 10279 10276 10277 10281 10285 10289 10292 10298 10301 10305 10308 10310 10314 10317 10318 10323 10323 10325 10327 10326 10327 10327 10330 10329 10327 10326 10322 10320
10249 10247 10246 10243 10243 10243 10243 10242 10244 10245 10244 10241 10247 10241 10240 10239 10244 10247 10249 10254 10258 10262 10264 10267 10269 10273 10278 10281 10285 10289 10290 10292 10294 10296 10298 10298 10296 10298 10299 10298 10297 10294 10292
10225 10222 10218 10213 10209 10207 10207 10207 10206 10206 10208 10206 10206 10209 10211 10209 10208 10213 10217 10220 10225 10231 10233 10234 10237 10240 10245 10247 10249 10252 10257 10260 10264 10266 10266 10266 10267 10268 10268 10269 10268 10268 10266
10198 10193 10187 10180 10174 10169 10174 10177 10174 10170 10170 10171 10171 10173 10174 10173 10174 10174 10183 10188 10192 10199 10202 10207 10209 10211 10213 10216 10219 10223 10225 10227 10232 10235 10236 10237 10239 10240 10241 10241 10241 10241 10240
10169 10163 10158 10152 10147 10142 10139 10140 10141 10140 10133 10131 10134 10135 10137 10140 10140 10141 10147 10153 10158 10164 10171 10176 10180 10182 10183 10185 10188 10191 10195 10199 10201 10204 10205 10208 10211 10210 10211 10215 10214 10214 10212
10142 10135 10128 10125 10121 10117 10107 10106 10107 10108 10105 10102 10100 10102 10103 10106 10108 10109 10114 10119 10125 10128 10133 10140 10146 10151 10155 10157 10160 10163 10167 10171 10173 10175 10177 10178 10181 10183 10184 10184 10186 10186 10185
10112 10103 10095 10089 10085 10083 10082 10072 10076 10079 10075 10073 10074 10073 10071 10074 10076 10079 10081 10085 10089 10094 10101 10106 10113 10120 10125 10128 10132 10135 10137 10140 10143 10145 10147 10148 10153 10154 10155 10157 10158 10158 10157
10081 10071 10062 10056 10052 10049 10048 10050 10037 10039 10044 10042 10042 10045 10046 10043 10045 10048 10050 10054 10058 10061 10065 10072 10078 10083 10091 10096 10099 10103 10106 10109 10113 10116 10118 10119 10122 10126 10126 10129 10129 10129 10128
10045 10038 10031 10024 10017 10013 10011 10009 10005 10004 10006 10014 10013 10012 10014 10017 10018 10018 10021 10023 10026 10031 10036 10039 10045 10050 10054 10060 10066 10070 10074 10078 10082 10085 10088 10090 10094 10095 10098 10099 10100 10101 10100
10013 10004 9997 9991 9986 9982 9977 9975 9974 9972 9972 9973 9978 9981 9983 9985 9989 9992 9993 9995 9998 10002 10006 10010 10014 10019 10024 10027 10032 10036 10041 10046 10051 10054 10058 10059 10061 10065 10068 10070 10072 10070 10073
9985 9976 9969 9961 9956 9952 9949 9948 9945 9942 9939 9940 9942 9947 9952 9953 9956 9962 9966 9968 9970 9974 9977 9981 9985 9989 9993 9997 10000 10004 10009 10014 10018 10021 10024 10028 10031 10031 10037 10039 10041 10043 10045
9957 9950 9944 9939 9934 9929 9926 9923 9919 9915 9913 9912 9914 9916 9920 9925 9928 9931 9936 9940 9944 9947 9950 9953 9956 9959 9963 9967 9971 9973 9977 9982 9986 9990 9993 9997 9999 10002 10005 10007 10008 10012 10014
9933 9926 9919 9914 9910 9906 9903 9900 9895 9891 9889 9888 9889 9891 9893 9895 9900 9903 9906 9911 9915 9918 9922 9925 9928 9931 9934 9937 9940 9944 9947 9950 9954 9957 9961 9965 9967 9969 9974 9976 9978 9980 9983
9909 9903 9896 9891 9886 9881 9879 9876 9873 9869 9867 9865 9865 9866 9867 9869 9872 9875 9879 9882 9886 9891 9894 9897 9901 9903 9906 9908 9911 9914 9917 9920 9923 9926 9929 9932 9936 9938 9940 9943 9946 9948 9949
9889 9881 9875 9869 9864 9859 9855 9854 9851 9848 9846 9844 9843 9843 9843 9844 9845 9848 9851 9854 9857 9861 9865 9869 9872 9875 9878 9880 9882 9884 9886 9889 9892 9896 9898 9899 9901 9904 9907 9910 9912 9914 9915
9868 9861 9854 9848 9842 9837 9833 9830 9830 9828 9825 9823 9821 9820 9820 9821 9821 9822 9824 9826 9828 9830 9834 9838 9842 9845 9848 9850 9852 9854 9856 9858 9861 9864 9866 9867 9869 9871 9873 9876 9878 9881 9882
9847 9840 9833 9827 9821 9816 9812 9808 9806 9805 9804 9803 9801 9799 9798 9797 9797 9797 9798 9799 9800 9801 9803 9806 9809 9812 9816 9818 9820 9822 9824 9826 9829 9832 9833 9836 9837 9838 9841 9843 9845 9847 9849